Погода в Приупском

Россия / Тульская область     53°54′33″N   37°44′09″E
темп.,
°C
ветер,
м/с
пор.,
м/с
влажн.,
%
обл.,
%
осадки,
мм/ч
давл.,
гПа
погр.,
м
17 мая, вт
вт1700:00+4з511896 0.0 1008306
03:00+3з5119587 0.0 1008347
06:00+4з61289100 0.0 1006533
09:00+7зсз81283100 0.2 10051122
12:00+6сз81291100 0.9 10051203
15:00+5сз71193100 1.9 1006842
18:00+5зсз81395100 1.7 1006669
21:00+7сз61197100 3.3 1006552
18 мая, ср
ср1800:00+7сз71296100 3.8 1005552
03:00+7ссз61095100 4.1 1007607
06:00+6с51097100 0.1 1009622
09:00+9с698114 0.3 1011928
12:00+12с79545 0.0 10121741
15:00+14с684872 0.0 10122175
18:00+11ссз61066100 0.1 1014633
21:00+8ссз5107833 0.1 1016391
19 мая, чт
чт1900:00+5сз369153 0.0 1017123
03:00+3зсз35885 0.0 101876
06:00+5зюз410835 0.0 1018273
09:00+11з7116573 0.0 1016877
12:00+13зсз8115697 0.0 10151582
15:00+12сз6106582 0.1 10161565
18:00+12ссз586969 0.4 10161025
21:00+9ссз3678100 0.5 1017265
20 мая, пт
пт2000:00+8зсз4884100 0.3 1016243
03:00+6зсз349216 0.3 101770
06:00+6ссз25925 0.0 1018190
09:00+9св446924 0.0 1018871
12:00+11св3355100 0.1 10181763
15:00+11св3358100 0.1 10181246
18:00+10в2258100 0.0 10171047
21:00+7вюв3369100 0.0 101746
21 мая, сб
сб2100:00+6вюв3469100 0.0 101580
03:00+6в3671100 0.0 1014168
06:00+5в4973100 0.0 1013288
09:00+10в68544 0.0 10121305
12:00+12всв784797 0.0 10122293
15:00+11св675869 0.1 10121412
18:00+10св466451 0.5 10121085
21:00+6св49815 0.6 1014160